Location: Schommer Observatory
(40.5200°N, 74.4500°W)
Time: 13:28:59
(UTC-05:00)

ISS - Visible Passes

Search period start: 23 January 2019 00:00
Search period end: 02 February 2019 00:00
Orbit: 404 x 410 km, 51.6° (Epoch: 24 January)

Date Brightness Start Highest point End Pass type
(mag) Time Alt. Az. Time Alt. Az. Time Alt. Az.
23 Jan -3.4 18:48:35 10° WSW 18:51:50 54° NNW 18:52:01 53° NNW visible
24 Jan -3.9 17:57:10 10° SW 18:00:27 81° SE 18:02:58 16° NE visible
24 Jan -0.8 19:34:49 10° WNW 19:35:42 14° WNW 19:35:42 14° WNW visible
25 Jan -2.2 18:42:53 10° W 18:45:46 27° NNW 18:46:34 24° N visible
26 Jan -2.9 17:51:06 10° WSW 17:54:15 42° NNW 17:57:23 10° NE visible
26 Jan -0.8 19:29:35 10° NW 19:30:06 12° NW 19:30:06 12° NW visible
27 Jan -1.6 18:37:29 10° WNW 18:39:48 17° NNW 18:40:51 15° N visible
28 Jan -2.0 17:45:27 10° WNW 17:48:11 23° NNW 17:50:54 10° NNE visible
28 Jan -0.7 19:24:12 10° NNW 19:24:17 10° NNW 19:24:17 10° NNW visible
29 Jan -1.4 18:32:11 10° NW 18:33:53 13° N 18:34:57 12° NNE visible
30 Jan -1.5 17:40:03 10° NW 17:42:10 16° NNW 17:44:17 10° NNE visible
30 Jan -0.8 19:18:13 10° NNW 19:18:20 10° NNW 19:18:20 10° NNW visible
31 Jan -1.4 18:26:35 10° NNW 18:27:59 12° N 18:28:59 11° NNE visible
01 Feb -1.1 19:11:42 10° NNW 19:12:22 13° NNW 19:12:22 13° NNW visible
